Regional Weather Roundup
Issued by NWS Newport/Morehead, NC

Current Version | Previous Version | Graphics & Text | Print | Product List | Glossary Off
Versions: 1 2 3 4 5 6 7 8 9 10 11 12 13 14 15 16 17 18 19 20 21 22 23 24 25 26 27 28 29 30 31 32 33 34 35 36 37 38 39 40 41 42 43 44 45 46 47 48 49 50
000 ASUS42 KMHX 250025 RWRMHX WEATHER ROUNDUP FOR EASTERN NORTH CAROLINA NATIONAL WEATHER SERVICE NEWPORT/MOREHEAD CITY NC 800 PM EDT SUN SEP 24 2017 NOTE: "FAIR" INDICATES FEW OR NO CLOUDS BELOW 12,000 FEET WITH NO SIGNIFICANT WEATHER AND/OR OBSTRUCTIONS TO VISIBILITY NCZ015>017-031-032-045>047-102-103-250100- NORTH COAST CITY SKY/WX TMP DP RH WIND PRES REMARKS EDENTON PTCLDY 73 64 72 CALM 30.01R ELIZABETH CITY PTCLDY 73 69 87 NE7 30.01R KITTY HAWK MOCLDY 70 66 85 NE8 29.99R MANTEO MOCLDY 72 68 88 E12 30.00R $$ NCZ045>047-081-094-103-104-250100- CENTRAL COAST CITY SKY/WX TMP DP RH WIND PRES REMARKS FRISCO MOCLDY 73 70 90 NE8G18 29.96R $$ NCZ095-097-098-100-101-250100- SOUTHERN COAST CITY SKY/WX TMP DP RH WIND PRES REMARKS BEAUFORT PTCLDY 74 64 71 NE9 29.95R CEDAR ISLAND NOT AVBL JACKSONVILLE PTCLDY 77 71 82 E8 29.95S PINEY ISLAND N/A N/A N/A N/A NE15G23 29.96R WILMINGTON CLOUDY 77 70 79 N3 29.95R $$ NCZ011>013-027>030-043-044-078>080-089-090>093-098-250100- COASTAL PLAIN CITY SKY/WX TMP DP RH WIND PRES REMARKS AHOSKIE MOCLDY 71 59 67 N3 30.02R CLINTON PTCLDY 73 69 87 CALM 29.98R ELIZABETHTOWN NOT AVBL GOLDSBORO CLOUDY 77 67 72 N6 29.96S GREENVILLE PTCLDY 77 64 65 NE7 30.01R HAVELOCK MOCLDY 77 71 82 NE10 29.97R KENANSVILLE CLEAR 72 68 88 CALM 29.97S FOG KINSTON PTCLDY 75 66 73 CALM 29.98S NEW BERN CLOUDY 75 65 70 NE7 29.98R RICHLANDS CLOUDY 73 68 84 NE3 29.96F ROCKY MOUNT PTCLDY 74 61 63 NE6 30.00R WASHINGTON PTCLDY 73 66 78 NE3 29.99S WHITEVILLE PTCLDY 74 70 86 CALM 29.96S $$ AMZ130-135-150-152-154-156-158-170-250-252-270-ANZ085-086-088-633-658-670-250100- MARINE OBSERVATIONS STATION/POSITION TIME TEMP WIND PRES WAVE SWELL AIR SEA DIR/SP/G HT/PER HT/PER (UTC) (F) (DEG/KT/KT) (MB) (FT/S) (FT/S) CHESAPEAKE LIGHT NOT AVBL 64 E VA BEACH 2350 71 71 40/ 12/ 14 1016.1 8/11 8/11 DUCK 0000 73 77 40/ 14/ 16 1015.6 2 E DUCK 0000 76 N/A 5/15 3/15 OREGON INLET 0000 72 77 40/ 11/ 15 1015.5 13E OREGON INLT 2348 75 N/A 7/12 7/12 HATTERAS CG 0000 74 78 40/ 11/ 16 1014.6 DIAMOND BUOY 2350 75 81 30/ 21/ 25 1013.3 10/16 10/16 CAPE LOOKOUT 0000 76 20/ 14/ 16 1013.7 BEAUFORT LAB 0000 76 77 40/ 8/ 12 1013.8 30 SE NEW RVR IN 0008 78 50/ 19/ 25 1013.0 30 SE NEW RVR IN NOT AVBL 27 SE WRIGHTSVLE 0008 79 80 70/ 19/ 27 1012.8 5 SE WRIGHTSVLE 2308 79 78 60/ 12/ 17 1013.4 225 S CAPE HAT 2350 80 81 30/ 31/ 39 1003.8 21/11 15/11 41 SE CHARLESTON 0010 80 81 40/ 19/ 23 1012.8 $$

USA.gov is the U.S. government's official web portal to all federal, state and local government web resources and services.